Location: San Polo
(43.4833°N, 11.9167°E)
Time: 13:34:58
(UTC+00:00)

Daily predictions for brighter satellites

Satellite Brightness Start Highest point End
(mag) Time Altitude Azimuth Time Altitude Azimuth Time Altitude Azimuth
Cosmos 1844 Rocket 3.6 19:25:54 10° N 19:31:01 36° NE 19:36:06 10° ESE
DMSP B5D2-2 4.4 19:28:54 10° N 19:34:08 75° WNW 19:39:19 10° SSW
H-2A ROCKET BODY 4.1 19:31:11 10° SW 19:35:07 23° SSE 19:45:02 10° ESE
Cosmos 1758 Rocket 4.4 19:32:23 10° SSE 19:36:23 32° E 19:40:24 10° NNE
Meteor 2-10 Rocket 3.8 19:31:29 10° N 19:36:30 54° ENE 19:41:40 10° SSE
Cosmos 1626 Rocket 3.7 19:33:28 10° S 19:37:55 88° W 19:42:25 10° N
Cosmos 1400 Rocket 4.2 19:35:32 10° NNE 19:38:46 23° ENE 19:41:58 10° SE
Lacrosse 5 rocket 4.2 19:37:23 10° WNW 19:40:36 20° NNW 19:43:42 10° NNE
BREEZE-M DEB (TANK) 4.5 19:34:48 10° SSW 19:41:25 25° SSE 19:44:09 10° E
Spot 2 Rocket 4.2 19:37:01 10° SE 19:41:44 40° ENE 19:46:29 10° N
OAO 3 Rocket 4.2 19:37:35 10° WSW 19:41:50 30° S 19:46:08 10° SE
ATLAS 5 CENTAUR R/B 4.4 19:39:53 10° W 19:43:06 19° NW 19:45:03 10° N
Cosmos 1745 Rocket 4.1 19:40:01 10° S 19:46:06 64° E 19:52:18 10° NNE
Resurs 1-3 4.2 19:45:17 10° S 19:49:35 57° W 19:53:55 10° NNW
Cosmos 1125 Rocket 3.8 19:46:46 10° NNW 19:51:59 69° WSW 19:57:13 10° S
Meteor 1-21 Rocket 4.3 19:49:18 10° S 19:55:11 80° E 20:01:08 10° NNE
SPOT 1/Viking Rocket 4.2 19:51:15 11° SE 19:55:54 42° ENE 20:00:44 10° N
Cosmos 1953 Rocket 4.5 19:56:03 12° SSE 19:59:31 30° E 20:03:17 10° NNE
VEP-3 4.3 19:56:58 10° SSW 20:00:26 16° S 20:03:43 12° SE
Cosmos 2322 Rocket 3.0 19:55:23 10° SW 20:00:53 55° WNW 20:06:25 10° NNE
SL-08 ROCKET BODY 4.4 19:55:40 10° S 20:01:36 85° E 20:07:39 10° N
SPOT 3 Rocket 4.5 19:56:55 10° S 20:01:55 47° W 20:06:59 10° NNW
Alouette 2 Rocket 4.2 19:58:18 10° N 20:02:02 42° ENE 20:06:10 14° SE
NOSS 7 (D) 4.5 20:00:22 10° SW 20:03:12 58° NW 20:05:52 10° NNE
Cosmos 2237 4.3 19:57:48 10° SSW 20:03:32 89° E 20:09:19 10° NNE
OAO 2 Rocket 4.3 20:00:56 10° SW 20:05:32 30° S 20:09:32 13° ESE
Cosmos 1328 4.0 20:01:59 10° S 20:05:49 51° E 20:09:40 10° NNE
SAR-Lupe-2 4.1 20:07:40 10° NNE 20:11:04 38° E 20:13:37 15° SSE
Cosmos 1455 2.3 20:09:20 10° N 20:13:11 79° W 20:16:46 12° S
Cosmos 1825 Rocket 3.6 20:10:44 10° S 20:15:07 69° E 20:19:34 10° NNE
ATLAS CENTAUR R/B 2.9 20:16:46 10° N 20:19:44 22° NE 20:22:16 12° E
Cosmos 1703 3.2 20:15:52 10° S 20:19:44 87° E 20:23:38 10° N
COSMOS 2428 3.2 20:15:35 10° S 20:20:45 38° ESE 20:25:56 10° NE
SL-24 R/B - RUBIN 2 4.4 20:17:40 10° SSW 20:23:35 75° ESE 20:30:09 10° NE
Cosmos 2322 3.7 20:18:54 10° SSW 20:24:34 69° ESE 20:30:16 10° NNE
Cosmos 1844 3.8 20:19:31 10° NNW 20:25:19 76° ENE 20:29:32 19° SSE
Delta 2 Rocket 4.2 20:25:10 10° SW 20:27:49 21° S 20:28:10 21° S
CZ-4B DEB 4.5 20:28:15 24° SSE 20:30:03 61° ENE 20:33:22 10° N
Cosmos 1709 Rocket 4.0 20:24:53 10° S 20:31:09 80° E 20:37:32 10° N
NOSS 3-3 (A) 4.0 20:27:34 10° SSW 20:33:08 53° ESE 20:39:21 10° NE
NOSS 3-3 (C) 4.0 20:27:40 10° SSW 20:33:15 53° ESE 20:39:28 10° NE
Terra 2.5 20:31:40 20° SE 20:34:28 40° ENE 20:38:55 10° N
Cosmos 2237 Rocket 3.6 20:33:12 17° ESE 20:34:37 19° E 20:38:31 10° NE
CARTOSAT-1 3.7 20:32:57 22° SSE 20:35:35 62° ENE 20:39:52 10° N
Atlas Centaur 2 3.5 20:31:02 10° SW 20:36:00 26° S 20:38:47 20° SE
Cosmos 2333 4.1 20:30:44 10° SSW 20:36:22 82° ESE 20:42:05 10° NNE
Cosmos 2219 Rocket 2.2 20:31:19 10° S 20:36:45 57° ESE 20:42:14 10° NNE
Cosmos 2360 Rocket 3.1 20:33:17 10° SW 20:38:46 52° WNW 20:44:19 10° NNE
IGS 5A 3.9 20:35:34 16° S 20:38:48 59° W 20:42:55 10° NNW
Cosmos 1538 Rocket 4.2 20:35:01 13° S 20:39:36 54° ESE 20:44:48 10° NNE
IRIS 3.8 20:40:26 10° WSW 20:43:13 49° S 20:43:18 48° S
DELTA 2 R/B (1) 4.2 20:39:24 10° SW 20:44:17 32° SSE 20:49:12 10° E
BREEZE-M (TANK) 4.4 20:42:01 14° S 20:45:31 39° ESE 20:58:34 10° ENE
Cosmos 2333 Rocket 2.1 20:40:53 10° SSW 20:46:32 74° ESE 20:52:15 10° NNE
Resurs 01 Rocket 3.9 20:47:36 10° SW 20:50:50 20° W 20:54:04 10° NW
ATLAS 2AS CENTAUR R/B 4.1 20:45:42 10° NNW 20:52:30 33° NE 20:58:48 10° E
Cosmos 1315 Rocket 3.0 20:48:28 10° N 20:52:32 58° ENE 20:54:13 32° SE
Cosmos-2242 3.9 20:51:47 10° NNW 20:55:56 45° W 20:59:05 16° SSW
Cosmos 773 Rocket 4.3 20:51:19 10° SSW 20:56:35 71° WNW 21:01:54 10° NNE
ERS-1 Rocket 3.1 20:56:51 23° S 21:00:00 74° WSW 21:05:04 10° NNW
Cosmos 2221 3.2 20:56:50 10° N 21:01:00 42° ENE 21:02:30 31° ESE
USA 215 3.3 21:00:28 10° NE 21:07:03 88° NW 21:13:37 10° SW
Cosmos 1892 3.6 21:07:02 29° E 21:07:19 30° E 21:10:40 10° NNE
Cosmos 2278 Rocket 2.8 21:04:46 10° NNW 21:10:15 47° ENE 21:13:09 26° ESE
ATLAS 5 CENTAUR R/B 3.6 21:07:36 10° WSW 21:11:19 30° NW 21:15:28 10° NNE
Cosmos 1844 Rocket 3.8 21:09:51 10° NW 21:14:52 35° WSW 21:18:16 18° SSW
SPOT 5 3.3 21:13:57 26° S 21:16:45 59° W 21:21:33 10° NNW
SL-16 R/B 3.9 21:18:56 16° E 21:19:01 16° E 21:22:15 10° ENE
Cosmos 2154 Rocket 4.3 21:23:04 32° SSE 21:25:41 51° E 21:31:40 10° NNE
Cosmos 2058 3.1 21:25:00 45° SE 21:25:43 52° E 21:29:47 10° NNE
Nadezhda 3 Rocket 4.4 21:20:13 10° N 21:26:25 50° ENE 21:29:11 31° SE
BREEZE M DEB (TANK) 3.6 21:26:39 10° WNW 21:27:39 22° W 21:27:39 22° W
Cosmos 1408 3.6 21:29:06 30° E 21:29:06 30° E 21:32:00 10° NNE
Meteor 2-17 Rocket 4.4 21:27:25 31° S 21:30:26 73° E 21:36:29 10° NNE
In-Cosmos 22 Rocket 4.0 21:29:55 36° S 21:32:03 71° E 21:37:21 10° NNE
Cosmos 2074 Rocket 4.0 21:29:16 26° S 21:32:57 88° W 21:39:13 10° N
TSX-5 4.0 21:33:17 10° NNW 21:36:50 60° ENE 21:37:36 49° ESE
Cosmos 1076 Rocket 3.5 21:36:08 51° SE 21:36:55 62° E 21:41:10 10° NNE
Cosmos 1680 Rocket 3.6 21:35:42 40° SSE 21:37:22 59° ESE 21:42:37 10° NNE
USA 267 3.4 21:34:05 22° ESE 21:38:30 72° NE 21:45:02 10° NW
Cosmos 2084 3.7 21:43:00 10° NW 21:47:23 57° WSW 21:48:05 50° SSW
Cosmos 2151 3.8 21:47:18 34° E 21:47:25 34° E 21:51:18 10° NNE
Cosmos 1842 Rocket 4.1 21:43:34 10° NNW 21:47:45 49° W 21:49:01 36° SW
OAO 2 Rocket 4.5 21:45:05 10° WSW 21:48:29 28° SSW 21:48:29 28° SSW
EO 1 Delta rocket 4.5 21:45:48 10° NNE 21:50:54 57° E 21:52:50 40° SSE
Cosmos 923 Rocket 4.1 21:52:20 31° SSW 21:54:55 76° WNW 22:00:13 10° NNE
Cosmos 2327 Rocket 4.4 21:52:14 34° S 21:55:09 86° W 22:01:20 10° N
Cosmos 1825 2.6 21:58:09 47° ENE 21:58:09 47° ENE 22:01:32 10° NNE
ATLAS CENTAUR R/B 2.2 21:55:21 10° NW 21:58:26 33° WSW 21:58:26 33° WSW
ALOS 2 3.7 21:58:03 29° E 21:58:55 32° ENE 22:02:51 10° N
Cosmos 1980 3.7 21:56:55 30° SSW 21:59:48 83° WNW 22:05:29 10° NNE
Cosmos 1151 Rocket 4.5 21:59:01 10° NNE 22:02:38 25° ENE 22:03:13 24° E
Cosmos 44 4.0 22:05:15 32° E 22:05:15 32° E 22:08:22 10° NE
COSMOS 2428 4.2 21:59:52 10° WSW 22:05:01 35° NW 22:10:12 10° N
Cosmos 1295 Rocket 4.4 22:06:31 41° S 22:08:51 87° E 22:15:00 10° N
GP-B 3.9 22:07:02 10° NNE 22:11:09 37° E 22:11:23 36° E
NOSS 0 Rocket 4.3 22:07:31 17° SW 22:12:16 60° WNW 22:18:23 10° NNE
Terra 3.5 22:10:34 19° SW 22:12:20 23° W 22:16:08 10° NW
Cosmos 962 Rocket 4.5 22:12:15 43° S 22:14:27 76° E 22:20:49 10° N
Cosmos 1624 Rocket 4.0 22:10:29 10° NNW 22:15:43 70° ENE 22:16:57 50° SE
NOSS 3-4 (A) 3.8 22:09:10 10° NW 22:16:14 85° NE 22:19:47 36° SE
NOSS 3-4 (C) 3.8 22:09:15 10° NW 22:16:21 84° NE 22:19:55 36° SE
Cosmos 2237 Rocket 2.5 22:14:58 27° SW 22:18:06 65° WNW 22:23:48 10° NNE
Genesis I 3.4 22:18:36 61° W 22:19:01 67° NW 22:22:54 10° NNE
Cosmos 2344 3.4 22:16:02 25° SSW 22:20:51 83° SE 22:28:48 10° NE
Nimbus 7 Rocket 4.4 22:14:57 10° NNE 22:20:51 64° ESE 22:22:21 48° SSE
Cosmos 2219 Rocket 4.2 22:16:34 10° WSW 22:21:04 24° NW 22:25:37 10° N
Atlas Centaur 2 4.3 22:19:33 10° WSW 22:21:21 16° SW 22:21:21 16° SW
DELTA 2 R/B (1) 3.6 22:24:46 10° WSW 22:36:22 - E 22:30:02 56° S
Thor Agena Rocket 3.9 22:26:32 10° N 22:31:33 58° WNW 22:33:18 38° SW
BREEZE-M DEB (TANK) 3.1 22:39:07 10° WNW 22:41:22 32° NNW 22:41:22 32° NNW
Cosmos 1515 Rocket 4.4 22:38:51 10° N 22:42:56 37° ENE 22:43:15 37° E
Cosmos 1371 Rocket 4.1 22:38:14 10° NNW 22:43:25 60° WSW 22:44:15 53° SW
ATLAS 2AS CENTAUR R/B 2.7 22:36:42 10° NW 22:44:09 73° WSW 22:46:25 46° SSE
Cosmos 1766 Rocket 3.4 22:44:24 82° SW 22:44:35 86° WNW 22:49:00 10° N
EO 1 Del DPAF 4.3 22:41:08 10° N 22:44:35 35° WNW 22:44:59 34° W
Okean 3 Rocket 3.6 22:47:03 66° WSW 22:47:24 70° W 22:51:51 10° N
Gbstr 26 Del rocket 4.2 22:49:28 27° ENE 22:49:28 27° ENE 22:51:35 10° ENE
Cosmos 1328 Rocket 3.4 22:46:02 10° N 22:50:22 77° E 22:50:25 77° E
Aureole 2 Rocket 4.1 22:47:32 10° NNW 22:48:59 27° NNW 22:48:59 27° NNW
Cosmos 1606 2.9 22:48:48 10° NNW 22:52:19 68° NW 22:52:19 68° NW
Cosmos 2218 Rocket 4.0 22:50:54 49° S 22:52:46 84° E 22:59:07 10° N
Cosmos 864 Rocket 4.4 22:52:04 50° S 22:53:47 78° E 23:00:05 10° N
Cosmos 2278 Rocket 3.4 22:49:22 10° NW 22:54:02 27° WSW 22:54:59 26° WSW
Cosmos 2297 3.6 22:50:07 10° NNW 22:55:54 89° ENE 22:57:12 56° SSE
Cosmos 2366 rocket 3.9 22:56:35 50° S 22:58:26 88° E 23:04:50 10° N
Cosmos 2228 Rocket 4.4 22:54:28 10° N 22:58:35 31° ENE 22:59:19 30° E
Cosmos 1420 Rocket 3.9 22:54:24 10° NNW 22:59:42 87° ENE 23:00:36 63° SSE
Cosmos 1633 3.7 23:01:11 37° ENE 23:01:11 37° ENE 23:03:52 10° NNE
Lacrosse 5 rocket 3.8 22:58:44 10° NNW 23:01:40 19° NNE 23:04:31 10° ENE
SL-16 R/B 2.2 23:00:46 48° SW 23:02:24 77° WNW 23:08:07 10° NNE
Cosmos 1943 Rocket 2.8 22:56:59 10° NNW 23:02:31 50° ENE 23:04:40 33° ESE
Cosmos 2056 Rocket 4.1 23:02:12 10° NNW 23:07:19 44° WSW 23:07:58 42° WSW
Cosmos 1959 Rocket 4.4 23:06:20 49° SSW 23:08:05 77° W 23:14:19 10° N
YAOGAN 11 4.1 23:09:09 64° E 23:09:25 66° ENE 23:13:49 10° N
BREEZE-M DEB (TANK) 4.5 22:57:17 10° SW 23:11:24 52° SSE 23:15:51 10° E
Cosmos 1743 Rocket 3.8 23:12:36 55° E 23:12:36 55° E 23:16:46 10° NNE
Cosmos 1048 Rocket 4.0 23:19:32 59° SE 23:20:09 64° ESE 23:25:23 10° NNE
Cosmos 332 Rocket 3.6 23:16:13 10° NNW 23:21:03 87° ENE 23:21:28 74° SSE
USA 267 3.9 23:21:24 35° SW 23:21:47 36° SW 23:27:44 10° WNW
Meteor 2-3 Rocket 3.8 23:21:02 52° SW 23:22:21 72° WNW 23:28:03 10° N
Helios 1A 3.1 23:24:53 65° W 23:24:53 65° W 23:28:49 10° NNW
Cosmos 405 3.7 23:26:19 10° N 23:29:08 53° N 23:29:08 53° N
Meteor 1-26 Rocket 4.5 23:28:08 10° NNW 23:34:02 62° W 23:35:20 50° SW
Cosmos 1340 3.9 23:34:23 33° WNW 23:34:23 33° WNW 23:37:38 10° N
Cosmos 1452 Rocket 3.4 23:29:14 10° NNW 23:34:28 70° WSW 23:35:06 63° SSW
ALOS 2 4.1 23:35:27 24° W 23:35:27 24° W 23:38:53 10° NW
CZ-4C R/B 3.6 23:28:41 10° NNW 23:35:40 52° NE 23:43:40 10° ESE
Cosmos 1408 Rocket 4.3 23:35:56 40° W 23:36:16 40° WNW 23:40:26 10° N
Meteor 2-6 Rocket 4.4 23:31:03 10° N 23:36:29 61° ENE 23:37:54 45° SE
COSMOS 2455 2.8 23:30:28 10° NNW 23:36:33 89° ENE 23:38:24 48° SSE
PSLV R/B 3.5 23:32:22 10° NNE 23:36:34 72° E 23:36:34 72° E
SL-16 R/B 4.3 23:31:57 10° ESE 23:36:52 25° ENE 23:41:50 10° N
Cosmos 1603 3.8 23:36:25 52° SSE 23:37:21 58° ESE 23:42:57 10° NNE
Cosmos 1151 Rocket 4.3 23:36:27 10° NNW 23:40:03 28° W 23:40:03 28° W
Cosmos 1500 Rocket 3.6 23:44:49 67° W 23:44:59 68° W 23:49:23 10° N
Cosmos 1727 Rocket 4.2 23:40:21 10° NNW 23:46:26 58° W 23:48:04 45° SW
Resurs 1-4 Rocket 3.9 23:43:11 10° NE 23:47:04 20° E 23:48:44 18° ESE
Cosmos 2369 Rocket 2.2 23:41:28 10° NNW 23:47:06 78° ENE 23:48:49 46° SE
ISS -1.4 23:51:00 17° ENE 23:51:00 17° ENE 23:52:01 10° ENE
Cosmos 371 Rocket 4.2 23:46:11 10° NW 23:50:25 35° W 23:50:25 35° W
SeaSat 1 3.5 23:46:34 10° NE 23:50:54 30° ESE 23:51:20 30° ESE
Cosmos 1000 Rocket 4.4 23:47:02 10° N 23:53:25 90° WNW 23:55:26 47° S
Helios 1B rocket 2.3 23:51:13 10° NNE 23:55:22 85° WNW 23:55:23 85° W
